Regional Weather Roundup
Issued by NWS

Home | Current Version | Previous Version | Text Only | Print | Product List | Glossary On
Versions: 1 2 3 4 5 6 7 8 9 10 11 12 13 14 15 16 17 18 19 20 21 22 23 24 25 26 27 28 29 30 31 32 33 34 35 36 37 38 39 40 41 42 43 44 45 46 47 48 49 50
000
ASUS42 KFFC 010003
RWRGA
WEATHER ROUNDUP FOR GEORGIA
NATIONAL WEATHER SERVICE PEACHTREE CITY GA
800 PM EDT MON AUG 31 2015

NOTE: "FAIR" INDICATES FEW OR NO CLOUDS BELOW 12,000 FEET WITH NO
SIGNIFICANT WEATHER AND/OR OBSTRUCTIONS TO VISIBILITY.

* = USE WITH CAUTION. THE STATIONS MARKED WITH AN ASTERISK MAY NOT
REPORT WEATHER SUCH AS PRECIPITATION, FOG, OR THUNDER AND ARE NOT
QUALITY CONTROLLED BY NWS.

THE REMARK "TC" DENOTES TEMPERATURE READING IN DEGREES CELSIUS.

GAZ001>058-010100-
NORTH GEORGIA

CITY           SKY/WX    TMP DP  RH WIND       PRES   REMARKS
ATLANTA        MOCLDY    78  67  68 S3        30.08F
6HR MIN TEMP:  76; 6HR MAX TEMP:  84;

ATHENS         MOCLDY    79  68  69 CALM      30.08R
6HR MIN TEMP:  78; 6HR MAX TEMP:  87;

CHAMBLEE       CLEAR     77  69  76 S3        30.08F
6HR MIN TEMP:  76; 6HR MAX TEMP:  83;

PEACHTREE CITY CLEAR     74  72  93 CALM      30.09R
6HR MIN TEMP:  74; 6HR MAX TEMP:  82;

ROME           CLEAR     80  69  69 CALM      30.06F
6HR MIN TEMP:  79; 6HR MAX TEMP:  85;

WEST ATLANTA   CLEAR     79  68  69 CALM      30.08S
6HR MIN TEMP:  75; 6HR MAX TEMP:  83;

GAINESVILLE    CLEAR     77  66  68 W5        30.11S
6HR MIN TEMP:  77; 6HR MAX TEMP:  83;

CARTERSVILLE   CLEAR     75  71  87 CALM      30.08S
6HR MIN TEMP:  75; 6HR MAX TEMP:  83;



CITY           SKY/WX    TMP DP  RH WIND       PRES   REMARKS
DALTON*        PTCLDY    75  72  88 CALM      30.07S
LAWRENCEVILLE* CLEAR     79  63  57 CALM      30.09S
KENNESAW*      PTCLDY    79  64  61 NW3       30.10S
BLAIRSVILLE*     N/A     74  45  35 CALM      30.13S
$$

GAZ059>098-102>109-010100-
CENTRAL GEORGIA

CITY           SKY/WX    TMP DP  RH WIND       PRES   REMARKS
AUGUSTA-BUSH   CLEAR     77  71  82 CALM      30.05S
6HR MIN TEMP:  77; 6HR MAX TEMP:  85;

AUGUSTA-DANIEL CLEAR     86  68  54 CALM      30.07S
6HR MIN TEMP:  86; 6HR MAX TEMP: 102;

COLUMBUS       CLEAR     83  67  58 NE3       30.04S
6HR MIN TEMP:  83; 6HR MAX TEMP:  88;

MACON          CLEAR     79  71  76 E5        30.06S
6HR MIN TEMP:  79; 6HR MAX TEMP:  87;

ROBINS AFB     CLEAR     79  74  84 E3        30.05S


CITY           SKY/WX    TMP DP  RH WIND       PRES   REMARKS
LAGRANGE*      CLEAR     81  78  90 CALM      30.07S
SYLVANIA*      CLEAR     77  76  95 CALM      30.07S
MILLEDGEVILLE* CLEAR     77  72  83 CALM      30.07R
$$

GAZ099>101-110>166-010100-
SOUTH GEORGIA

CITY           SKY/WX    TMP DP  RH WIND       PRES   REMARKS
SAVANNAH       PTCLDY    80  72  76 N6        30.05S
6HR MIN TEMP:  80; 6HR MAX TEMP:  86;

VALDOSTA       CLEAR     83  71  67 CALM      30.03S
6HR MIN TEMP:  83; 6HR MAX TEMP:  90;

ALMA           CLEAR     82  72  71 VRB3      30.04S
6HR MIN TEMP:  82; 6HR MAX TEMP:  90;

ST SIMONS      PTCLDY    81  75  82 E7        30.04F
6HR MIN TEMP:  81; 6HR MAX TEMP:  86;

FT STEWART     CLEAR     80  73  78 CALM      30.03S
ALBANY         CLEAR     85  69  58 N5        30.05S
HUNTER AFB     CLEAR     82  76  84 VRB1      30.03R
MOODY AFB      CLEAR     82  70  66 NE2       30.03S
BRUNSWICK      PTCLDY    82  75  78 CALM      30.06S


CITY           SKY/WX    TMP DP  RH WIND       PRES   REMARKS
BAINBRIDGE*    CLEAR     86  70  58 NE3       30.03S HX  90
MOULTRIE*      CLEAR     82  72  69 CALM      30.04S
VIDALIA*       CLEAR     77  72  83 CALM      30.06F
WAYCROSS*      CLEAR     85  77  77 CALM      30.04R HX  96
DOUGLAS*       CLEAR     82  72  69 CALM      30.06R
$$



USA.gov is the U.S. government's official web portal to all federal, state and local government web resources and services.